Location: Le Domaine
(47.0333°N, 76.5361°W)
Time: 11:20:14
(UTC-05:00)

S-56A Canister/Altair - Pass Details

Date: 19 November 2019
Orbit: 633 x 2499 km, 38.9° (Epoch: 10 December)

Event Time Altitude Azimuth Distance (km) Brightness Sun altitude
Rises 20:24:17 0° 266° (W) 4,279 12.1 -40.0°
Reaches altitude 10° 20:27:53 10° 259° (WSW) 2,999 11.1 -40.5°
Enters shadow 20:30:56 22° 243° (WSW) 1,997 9.9 -41.0°
Maximum altitude 20:33:58 33° 197° (SSW) 1,407 - -41.5°
Drops below altitude 10° 20:38:30 10° 133° (SE) 2,217 - -42.3°
Sets 20:40:47 0° 123° (ESE) 3,025 - -42.6°
